CW4778 Auckland NZ current weather conditions

sailwx.info

Wind from 032 at 6 knots gusting 11

Air temperature 11.1° C
Dewpoint 10.3° C

Last reported at 2016-Jul-25 13:48 UTC.
Time now 2016-Jul-25 14:07 UTC

Location: S 36°52' E 174°44'.
View on Google Maps.

See reports from other nearby stations

  
Tides and Currents Weather Stations Pressure Air Temp Water Temp Dewpoint Dewpoint Depression Visibility Wind Speed Wind Dir Waves Ship Positions
date/time (UTC)wind fromknots sea level pressurealtimeterstation pressurevisibilityair tempwater tempwave heightnotes
2016-Jul-25 13:48 032 6 gusting 11 11.1
2016-Jul-25 13:38 039 5 gusting 7 11.1
2016-Jul-25 13:28 053 4 gusting 6 11.1
2016-Jul-25 13:18 057 2 gusting 5 10.6
2016-Jul-25 13:08 068 0 gusting 2 10.6
2016-Jul-25 12:58 079 1 gusting 5 10.6
2016-Jul-25 12:48 027 3 gusting 6 10.6
2016-Jul-25 12:38 050 3 gusting 6 10.6
2016-Jul-25 12:28 051 2 gusting 7 10.0
2016-Jul-25 12:18 020 2 gusting 6 10.0
2016-Jul-25 11:38 050 2 gusting 4 9.4
2016-Jul-25 11:28 038 2 gusting 6 9.4
2016-Jul-25 11:18 063 0 gusting 2 9.4
2016-Jul-25 10:58 062 0 gusting 2 9.4
2016-Jul-25 10:08 351 1 gusting 2 8.9
2016-Jul-25 09:18 326 9.4
2016-Jul-25 09:08 325 10.0
2016-Jul-25 08:48 324 10.6
2016-Jul-25 08:38 326 10.6
2016-Jul-25 08:28 322 10.6
2016-Jul-25 08:08 324 11.1
2016-Jul-25 07:48 318 11.1
2016-Jul-25 07:38 325 1 gusting 2 11.1
2016-Jul-25 07:18 343 0 gusting 2 11.1
2016-Jul-25 06:58 305 0 gusting 4 11.1
2016-Jul-25 06:38 332 1 gusting 4 11.1
2016-Jul-25 06:28 297 2 gusting 5 11.7
2016-Jul-25 06:18 299 2 gusting 5 11.7
2016-Jul-25 06:08 303 2 gusting 4 11.7
2016-Jul-25 05:58 306 2 gusting 6 12.2
2016-Jul-25 05:48 281 3 gusting 6 12.2
2016-Jul-25 05:38 294 0 gusting 4 12.2
2016-Jul-25 05:28 329 3 gusting 6 12.8
2016-Jul-25 05:18 295 3 gusting 6 12.8
2016-Jul-25 05:08 271 3 gusting 6 12.8
2016-Jul-25 04:58 293 5 gusting 10 13.3
2016-Jul-25 04:48 310 1 gusting 11 13.3
2016-Jul-25 04:38 308 5 gusting 10 13.9
2016-Jul-25 04:28 289 5 gusting 14 13.9
2016-Jul-25 04:18 282 6 gusting 12 14.4
2016-Jul-25 03:28 291 4 gusting 14 15.0
2016-Jul-25 03:08 276 6 gusting 11 15.0
2016-Jul-25 02:58 282 5 gusting 12 15.0
2016-Jul-25 02:48 283 6 gusting 12 14.4
2016-Jul-25 02:28 262 6 gusting 13 14.4
2016-Jul-25 02:18 262 5 gusting 15 14.4
2016-Jul-25 02:08 237 10 gusting 19 15.0
2016-Jul-25 01:58 306 13 gusting 19 15.0
2016-Jul-25 01:48 320 8 gusting 20 15.0
2016-Jul-25 01:38 263 7 gusting 21 15.6
2016-Jul-25 01:28 272 7 gusting 19 16.1
2016-Jul-25 01:18 252 10 gusting 18 16.1
2016-Jul-25 01:08 287 5 gusting 19 16.1
2016-Jul-25 00:58 287 11 gusting 20 16.1
2016-Jul-25 00:48 298 7 gusting 14 16.1
2016-Jul-25 00:38 292 10 gusting 19 16.7
2016-Jul-25 00:28 324 10 gusting 20 16.7
2016-Jul-25 00:18 258 10 gusting 18 16.7
2016-Jul-24 23:58 263 6 gusting 17 16.7
2016-Jul-24 23:48 302 9 gusting 15 16.1
2016-Jul-24 23:38 266 7 gusting 17 16.7
2016-Jul-24 23:28 281 10 gusting 19 16.7
2016-Jul-24 23:08 263 7 gusting 13 15.6
2016-Jul-24 22:48 260 6 gusting 12 15.0
2016-Jul-24 22:38 274 7 gusting 22 15.0
2016-Jul-24 22:18 274 9 gusting 14 16.1
2016-Jul-24 22:08 263 6 gusting 18 16.1
2016-Jul-24 21:48 261 8 gusting 14 15.6
2016-Jul-24 21:28 273 7 gusting 18 15.0
2016-Jul-24 21:18 252 4 gusting 12 14.4
2016-Jul-24 21:08 287 3 gusting 12 12.8
2016-Jul-24 20:58 250 6 gusting 13 13.3
2016-Jul-24 20:48 265 3 gusting 13 12.2
2016-Jul-24 20:38 322 4 gusting 12 11.7
2016-Jul-24 20:18 287 5 gusting 12 11.1
2016-Jul-24 19:48 271 6 gusting 13 10.6
2016-Jul-24 19:28 264 5 gusting 10 10.6
2016-Jul-24 19:18 271 5 gusting 10 10.6
2016-Jul-24 19:08 269 4 gusting 10 10.6
2016-Jul-24 18:58 285 5 gusting 12 10.6
2016-Jul-24 18:48 262 5 gusting 11 10.6
2016-Jul-24 18:18 256 3 gusting 6 10.6
2016-Jul-24 18:08 242 5 gusting 13 10.6
2016-Jul-24 17:48 255 1 gusting 4 10.6
2016-Jul-24 17:28 252 3 gusting 7 10.6
2016-Jul-24 17:18 270 2 gusting 6 10.6
2016-Jul-24 17:08 260 10.6
2016-Jul-24 16:48 294 2 gusting 6 10.6
2016-Jul-24 16:38 257 10.6
2016-Jul-24 16:28 254 0 gusting 6 10.6
2016-Jul-24 16:18 271 1 gusting 8 11.1
2016-Jul-24 16:08 246 4 gusting 13 11.1
2016-Jul-24 15:58 299 6 gusting 18 11.1
2016-Jul-24 15:38 240 0 gusting 5 11.1
2016-Jul-24 15:18 252 4 gusting 10 11.1
2016-Jul-24 15:08 239 5 gusting 11 11.1
2016-Jul-24 14:58 264 6 gusting 14 11.1
2016-Jul-24 14:48 267 6 gusting 20 11.1
2016-Jul-24 14:38 283 8 gusting 20 11.7
2016-Jul-24 14:18 324 4 gusting 7 11.1
2016-Jul-24 14:08 285 5 gusting 12 11.7
2016-Jul-24 13:58 257 4 gusting 13 11.1
2016-Jul-24 13:48 272 6 gusting 13 11.1
2016-Jul-24 13:38 284 7 gusting 13 11.1
2016-Jul-24 13:28 269 7 gusting 14 11.1
2016-Jul-24 13:18 282 7 gusting 18 11.7
2016-Jul-24 13:08 259 10 gusting 24 12.8
2016-Jul-24 12:58 318 4 gusting 19 12.8
2016-Jul-24 12:48 288 6 gusting 17 12.8
2016-Jul-24 12:38 279 9 gusting 19 12.8
2016-Jul-24 12:28 262 10 gusting 20 12.8
2016-Jul-24 12:08 240 10 gusting 19 12.8
2016-Jul-24 11:58 294 5 gusting 14 12.8
2016-Jul-24 11:48 296 8 gusting 21 12.8
2016-Jul-24 11:28 320 10 gusting 18 12.8
2016-Jul-24 11:18 269 11 gusting 18 12.8
2016-Jul-24 11:08 292 8 gusting 19 12.8
2016-Jul-24 10:58 316 7 gusting 14 12.8
2016-Jul-24 10:28 281 6 gusting 14 12.8
2016-Jul-24 10:18 289 10 gusting 19 12.8
2016-Jul-24 10:08 303 6 gusting 18 12.8
2016-Jul-24 09:58 282 9 gusting 20 13.3
2016-Jul-24 09:28 288 10 gusting 17 13.3
2016-Jul-24 09:18 296 8 gusting 17 13.3
2016-Jul-24 09:08 313 8 gusting 18 12.8
2016-Jul-24 08:58 266 8 gusting 17 12.8
2016-Jul-24 08:38 272 10 gusting 20 12.8
2016-Jul-24 08:18 317 8 gusting 19 12.8
2016-Jul-24 08:08 284 10 gusting 20 12.8
2016-Jul-24 07:48 305 8 gusting 19 13.3
2016-Jul-24 07:38 279 9 gusting 19 13.3
2016-Jul-24 07:28 283 6 gusting 19 13.3
2016-Jul-24 07:18 270 9 gusting 26 13.3
2016-Jul-24 07:08 287 10 gusting 18 12.8
2016-Jul-24 06:28 285 10 gusting 17 12.8
2016-Jul-24 06:18 305 5 gusting 13 12.8
2016-Jul-24 06:08 295 6 gusting 17 13.3
2016-Jul-24 05:58 246 7 gusting 19 13.3
2016-Jul-24 05:38 279 9 gusting 20 13.3
2016-Jul-24 05:28 295 8 gusting 25 13.3
2016-Jul-24 05:18 318 11 gusting 25 13.3
2016-Jul-24 05:08 286 6 gusting 25 13.3
2016-Jul-24 04:58 291 9 gusting 26 13.3
2016-Jul-24 04:38 283 11 gusting 21 13.9
2016-Jul-24 04:18 269 12 gusting 25 13.9
2016-Jul-24 04:08 281 11 gusting 28 13.9
2016-Jul-24 03:58 270 9 gusting 25 14.4
2016-Jul-24 03:48 258 11 gusting 37 14.4
2016-Jul-24 03:38 297 12 gusting 20 14.4
2016-Jul-24 03:28 269 8 gusting 22 14.4
2016-Jul-24 03:18 277 7 gusting 25 14.4
2016-Jul-24 02:58 267 14 gusting 26 14.4
2016-Jul-24 02:48 266 14 gusting 24 14.4
2016-Jul-24 02:38 244 14 gusting 26 14.4
2016-Jul-24 02:28 263 12 gusting 28 15.0
2016-Jul-24 02:18 265 15 gusting 22 15.0
2016-Jul-24 01:58 288 7 gusting 25 13.9
2016-Jul-24 01:48 293 12 gusting 21 13.3
2016-Jul-24 01:38 292 10 gusting 14 12.8
2016-Jul-24 01:28 281 10 gusting 22 12.8
2016-Jul-24 01:18 286 7 gusting 26 13.9
2016-Jul-24 01:08 288 17 gusting 34 16.7
2016-Jul-24 00:58 283 16 gusting 27 17.2
2016-Jul-24 00:48 300 17 gusting 28 17.2
2016-Jul-24 00:28 294 15 gusting 31 17.8
2016-Jul-24 00:18 289 12 gusting 25 17.2
2016-Jul-23 23:58 291 12 gusting 26 17.8
2016-Jul-23 23:38 280 10 gusting 21 17.8
2016-Jul-23 23:18 286 11 gusting 20 17.8
2016-Jul-23 23:08 296 8 gusting 15 17.2
2016-Jul-23 22:58 284 8 gusting 13 15.6
2016-Jul-23 22:38 285 12 gusting 19 16.7
2016-Jul-23 22:18 282 10 gusting 19 17.2
2016-Jul-23 22:08 280 8 gusting 19 16.1
2016-Jul-23 21:48 273 11 gusting 18 15.6
2016-Jul-23 21:18 285 13 gusting 22 16.1
2016-Jul-23 21:08 261 11 gusting 22 16.1
2016-Jul-23 20:58 298 11 gusting 20 15.6
2016-Jul-23 20:48 278 12 gusting 21 15.0
2016-Jul-23 20:38 284 12 gusting 20 15.0
2016-Jul-23 20:28 292 11 gusting 22 14.4
2016-Jul-23 19:58 294 6 gusting 19 13.9
2016-Jul-23 19:48 272 11 gusting 25 13.9
2016-Jul-23 19:38 292 8 gusting 21 14.4
2016-Jul-23 19:08 285 15 gusting 25 14.4
2016-Jul-23 18:48 285 15 gusting 22 15.0
2016-Jul-23 18:08 286 11 gusting 18 15.0
2016-Jul-23 17:48 275 9 gusting 17 14.4
2016-Jul-23 17:28 279 12 gusting 19 15.0
2016-Jul-23 17:18 300 11 gusting 20 15.0
2016-Jul-23 16:58 291 12 gusting 25 15.0
2016-Jul-23 16:28 290 13 gusting 21 16.1
2016-Jul-23 16:18 329 12 gusting 21 16.1
2016-Jul-23 16:08 298 12 gusting 25 16.1
2016-Jul-23 15:58 307 12 gusting 26 16.7
2016-Jul-23 15:38 339 14 gusting 28 16.7
2016-Jul-23 15:28 308 13 gusting 26 16.7
2016-Jul-23 15:18 335 12 gusting 22 16.7
2016-Jul-23 14:58 315 15 gusting 28 17.2
2016-Jul-23 14:48 343 13 gusting 27 17.2
2016-Jul-23 14:38 327 14 gusting 32 17.8
2016-Jul-23 14:28 316 18 gusting 32 18.3
2016-Jul-23 14:18 319 19 gusting 37 17.8